AO-07 1 07530U 74089B 14233.50851723 -.00000041 00000-0 16791-4 0 442 2 07530 101.4785 213.2045 0012026 165.2923 315.9189 12.53606710819701 FO-29 1 24278U 96046B 14233.29875301 -.00000000 00000-0 32395-4 0 4459 2 24278 098.5135 238.1732 0351505 128.6430 302.9668 13.53027550889476 SO-33 1 25509U 98061B 14233.15419091 .00000326 00000-0 51848-4 0 8190 2 25509 031.4323 152.2650 0349214 323.5470 141.0904 14.29573950826456 RS-22 1 27939U 03042A 14233.72198156 .00000233 00000-0 51613-4 0 7818 2 27939 097.8134 044.6306 0011975 258.8290 101.1555 14.65281545582323 HO-68 1 36122U 09072B 14233.70358085 -.00000043 00000-0 00000 0 0 8728 2 36122 100.2423 283.5672 0007724 089.0549 271.1450 13.16317592225058 AO-73 1 39444U 13066AE 14233.06298199 .00000778 00000-0 11023-3 0 2262 2 39444 097.7690 301.4985 0062679 033.1976 327.3183 14.78497002 39059 EO-79 1 40025U 14033R 14233.70047925 .00000845 00000-0 10452-3 0 1779 2 40025 097.9766 128.4563 0014731 082.1439 278.1446 14.85337654 9310 UO-11 1 14781U 84021B 14233.20179473 .00000348 00000-0 50795-4 0 5780 2 14781 097.8464 292.0438 0007649 336.8899 023.1969 14.81688315637596 AO-16 1 20439U 90005D 14233.83403440 .00000064 00000-0 39700-4 0 951 2 20439 098.5094 169.9426 0010034 330.6483 089.4037 14.32377267283889 LO-19 1 20442U 90005G 14233.38004209 .00000048 00000-0 33526-4 0 339 2 20442 098.4802 169.9552 0010820 319.5665 040.4714 14.32577998284018 AO-27 1 22825U 93061C 14233.83383676 .00000040 00000-0 32937-4 0 7423 2 22825 098.6667 179.5791 0009618 105.2272 308.0543 14.29736947 90166 IO-26 1 22826U 93061D 14233.45519100 .00000038 00000-0 31817-4 0 4997 2 22826 098.6608 179.4114 0010176 099.5871 260.6461 14.30039241 90247 GO-32 1 25397U 98043D 14232.90097454 -.00000007 00000-0 15601-4 0 4215 2 25397 098.4749 188.4949 0002454 112.7880 313.6349 14.23455616837075 NO-44 1 26931U 01043C 14233.43380730 .00000014 00000-0 37545-4 0 6776 2 26931 067.0504 230.2027 0007280 279.3950 080.6328 14.30138671672931 SO-50 1 27607U 02058C 14233.83558689 .00000250 00000-0 58275-4 0 4793 2 27607 064.5577 032.2083 0055705 352.5442 007.4825 14.73864264627155 CO-55 1 27844U 03031E 14232.95793259 .00000136 00000-0 81793-4 0 9962 2 27844 098.6989 240.7990 0010930 090.2876 331.1671 14.21540748577784 CO-57 1 27848U 03031J 14233.55208909 .00000088 00000-0 60506-4 0 9387 2 27848 098.7083 241.1313 0010864 094.8230 026.7392 14.21223752577788 AO-51 1 28375U 04025K 14232.41735488 .00000064 00000-0 31780-4 0 9137 2 28375 098.2547 177.1557 0083840 157.5326 202.9570 14.41412097533163 CP3 1 31129U 07012N 14233.51660314 .00000380 00000-0 93289-4 0 8259 2 31129 097.9403 208.2139 0098910 166.6858 313.0228 14.54787350389533 CO-65 1 32785U 08021C 14233.45194750 .00000700 00000-0 87115-4 0 336 2 32785 097.6935 282.5896 0012717 339.4625 145.6257 14.85455313341711 PRISM 1 33493U 09002B 14233.84088704 .00001280 00000-0 13966-3 0 2199 2 33493 098.2529 052.3109 0016541 227.2299 132.7533 14.89762593301955 SOHLA-1 1 33496U 09002E 14233.42367778 .00000195 00000-0 40148-4 0 4332 2 33496 098.1779 354.5415 0006892 046.6572 353.5999 14.70861771299106 TISAT-1 1 36799U 10035E 14233.74536022 .00001011 00000-0 12219-3 0 4812 2 36799 098.0170 326.2428 0015293 106.3004 253.9887 14.85904199222459 STUDSAT 1 36801U 10035G 14232.35551134 .00008364 00000-0 71821-3 0 8718 2 36801 098.0367 334.1886 0009249 086.9601 313.9376 14.97697441222730 ALMASAT-1 1 38078U 12006B 14233.81956275 .00023810 32742-5 48937-3 0 1196 2 38078 069.4666 260.5810 0585327 304.4840 100.9742 14.52905204131167 XATCOBEO 1 38082U 12006F 14233.83057624 .00776804 26025-3 12404-2 0 5166 2 38082 069.4264 126.1299 0102891 229.1619 196.8821 15.93999105134706 CUBEBUG-1 1 39153U 13018D 14233.76525024 .00000543 00000-0 82710-4 0 4054 2 39153 098.0398 313.9302 0018398 136.6107 223.6543 14.77845593 71246 ESTCUBE-1 1 39161U 13021C 14233.83772711 .00000405 00000-0 75671-4 0 4024 2 39161 098.0942 314.2475 0009919 178.2354 181.8884 14.70101620 69249 DUCHIFAT-1 1 40021U 14033M 14233.69543134 .00001107 00000-0 13440-3 0 1824 2 40021 097.9763 128.4725 0016059 084.6225 275.6831 14.85483125 9302 NANOSATCBR1 1 40024U 14033Q 14233.69951969 .00000910 00000-0 11199-3 0 1758 2 40024 097.9774 128.4574 0014897 080.8537 279.4365 14.85374300 9309 DTUSAT-2 1 40030U 14033W 14233.64862296 .00000798 00000-0 99989-4 0 1729 2 40030 097.9754 128.3605 0014108 077.7562 282.5238 14.84969649 9305 ANTELSAT 1 40034U 14033AA 14233.68740893 .00000701 00000-0 11834-3 0 1765 2 40034 097.9739 127.0499 0062469 359.4367 000.6783 14.71297568 9231 MET-2/21 1 22782U 93055A 14233.30523703 .00000001 00000-0 -12822-4 0 1419 2 22782 082.5489 121.6477 0023502 083.7788 048.1376 13.83743076 59128 OKEAN-4 1 23317U 94066A 14233.48383575 .00000675 00000-0 74995-4 0 6215 2 23317 082.5411 006.7004 0019541 239.8370 186.6267 14.85637370 72805 NOAA-14 1 23455U 94089A 14233.46992122 -.00000032 00000-0 60441-5 0 8666 2 23455 098.7763 315.7407 0009220 207.4670 281.0385 14.13983004 13179 NOAA-15 1 25338U 98030A 14233.47469727 .00000081 00000-0 53384-4 0 3057 2 25338 098.7565 227.2199 0009660 323.2957 149.0140 14.25457011846149 RESURS 1 25394U 98043A 14233.49106213 -.00000056 00000-0 -61538-5 0 7311 2 25394 098.4197 195.1342 0002549 085.6057 023.4122 14.24396351837616 FENGYUN1 1 25730U 99025A 14233.88112034 .00000345 00000-0 21232-3 0 2215 2 25730 098.9161 194.5842 0021867 290.3580 122.7852 14.12001706786793 OKEAN-0 1 25860U 99039A 14233.49666936 .00000283 00000-0 49280-4 0 3346 2 25860 098.0496 197.0004 0001432 127.5667 342.9511 14.75347863811782 NOAA-16 1 26536U 00055A 14233.79224851 -.00000021 00000-0 00000 0 0 8018 2 26536 098.9847 294.4189 0010648 003.9289 356.2445 14.13032232717270 NOAA-17 1 27453U 02032A 14233.78565896 .00000134 00000-0 57394-4 0 6970 2 27453 098.3175 230.0529 0011488 348.1332 012.0061 14.24765891632023 NOAA-18 1 28654U 05018A 14233.70433337 .00000225 00000-0 12284-3 0 2095 2 28654 099.1532 214.5357 0015342 079.8748 280.4631 14.12051892476869 NOAA-19 1 33591U 09005A 14233.81852877 .00000237 00000-0 13025-3 0 3501 2 33591 098.9469 178.6693 0013386 298.5028 061.5267 14.11750629285236 HUBBLE 1 20580U 90037B 14232.69922485 .00001271 00000-0 74162-4 0 807 2 20580 028.4705 332.9835 0002722 258.6546 219.9291 15.05631084134458 ISS 1 25544U 98067A 14233.91685791 .00010269 00000-0 18664-3 0 9401 2 25544 051.6456 133.7756 0004503 046.5773 052.3089 15.50153699901523 CO-58 1 28895U 05043F 14233.77910163 .00000416 00000-0 91636-4 0 8495 2 28895 097.8310 072.2332 0018133 159.8029 200.3894 14.61974787469831 FALCON 1 30776U 07006E 14233.80714917 .00005524 00000-0 27571-3 0 9379 2 30776 035.4290 067.2659 0001143 190.7487 245.8416 15.16970886410701 MAST 1 31126U 07012K 14233.46200609 .00000249 00000-0 64211-4 0 1235 2 31126 097.9206 210.9762 0093039 150.1009 326.9658 14.55345097389883 CAPE1 1 31130U 07012P 14233.83992908 .00000308 00000-0 77798-4 0 1309 2 31130 097.9417 208.0708 0099476 167.1107 193.2669 14.54532973389357 COMPASS 1 32787U 08021E 14233.19079924 .00001415 00000-0 15911-3 0 163 2 32787 097.6958 284.8527 0012507 330.8409 029.2109 14.88173187341853 AAUSAT2 1 32788U 08021F 14233.43225912 .00001108 00000-0 12364-3 0 24 2 32788 097.6970 286.1548 0011894 328.0522 031.9972 14.88912625341956 DO-64 1 32789U 08021G 14233.40992419 .00003486 00000-0 33241-3 0 438 2 32789 097.7172 293.2742 0010361 311.2261 177.3187 14.93946887342237 CO-66 1 32791U 08021J 14233.40885020 .00000814 00000-0 97192-4 0 9987 2 32791 097.6954 283.6917 0013207 334.3324 025.7235 14.86784714341748 RS-30 1 32953U 08025A 14233.66625398 .00000010 00000-0 00000 0 0 2202 2 32953 082.5100 160.5055 0020083 017.3962 342.7812 12.43050057283392 METEOR-M 1 35865U 09049A 14233.73715575 -.00000044 00000-0 -62998-6 0 8261 2 35865 098.5440 279.1441 0001564 274.9206 085.1798 14.21926970255655 RS-38 1 35869U 09049E 14233.57261119 .00000009 00000-0 23227-4 0 7388 2 35869 098.5370 278.7563 0003524 258.2977 225.1363 14.22221769255669 JUGNU 1 37839U 11058B 14232.26531222 .00000346 00000-0 42941-4 0 6770 2 37839 019.9608 226.5739 0019027 330.9539 148.1093 14.12327017147624 SRMSAT 1 37841U 11058D 14232.42715380 .00000316 00000-0 28443-4 0 6802 2 37841 019.9713 246.2064 0011715 270.7139 235.6159 14.10365450147443 RAX-2 1 37853U 11061D 14233.42659848 .00002916 00000-0 20497-3 0 8918 2 37853 101.7092 294.2119 0214896 227.9142 202.7382 14.89956371152378 AUBIESAT 1 37854U 11061E 14233.21391278 .00003204 00000-0 21747-3 0 8736 2 37854 101.7137 295.9872 0212602 225.3453 171.4696 14.91323443152408 HRBE 1 37855U 11061F 14233.15918220 .00003469 00000-0 23730-3 0 8829 2 37855 101.7132 295.1675 0214936 226.9774 131.3249 14.90600125152359 RS-39 1 38051U 11062C 14233.90480855 .00104654 00000-0 85756-3 0 8318 2 38051 051.6215 249.8305 0007890 056.8244 015.2054 15.69643534144409 E-STAR 1 38079U 12006C 14233.23359012 .00056136 43039-5 58054-3 0 9376 2 38079 069.4487 178.9606 0339546 260.4014 217.3950 15.17356450133305 GOLIAT 1 38085U 12006J 14233.53599261 .00057122 42534-5 62422-3 0 2910 2 38085 069.4534 186.8766 0366553 264.2174 091.7098 15.10771027133117 HORYU-2 1 38340U 12025D 14232.84239520 .00000882 00000-0 14647-3 0 9424 2 38340 098.2675 191.1602 0012032 336.7569 023.3123 14.72684444121310 RS-40 1 38735U 12041C 14232.61903975 .00000024 00000-0 10000-3 0 6533 2 38735 082.4710 247.3630 0018146 113.0391 247.2606 12.42561346 93589 PROITERES 1 38756U 12047B 14233.85759068 .00000377 00000-0 63836-4 0 1274 2 38756 098.2282 323.2272 0013139 169.0109 191.1389 14.75043607104864 BEESAT-3 1 39134U 13015E 14233.21413475 .00001759 00000-0 13163-3 0 6772 2 39134 064.8739 292.6490 0032662 295.7484 064.0269 15.05814734 73453 BEESAT-2 1 39136U 13015G 14233.70471411 .00004980 00000-0 34326-3 0 6629 2 39136 064.8762 291.7716 0033505 296.9603 062.8600 15.05141314 73514 LO-75 1 39382U 13064C 14233.84720378 .00076367 00000-0 11619-2 0 3725 2 39382 040.4940 056.3864 0025332 348.8301 011.2455 15.53220567461119 ZACUBE-1 1 39417U 13066B 14233.76474406 .00000554 00000-0 80948-4 0 3824 2 39417 097.7704 302.1227 0062760 031.8455 328.6491 14.78262166 40385 TRITON-1 1 39427U 13066M 14232.77922891 .00000502 00000-0 91807-4 0 2346 2 39427 097.7579 295.6759 0119047 045.2490 315.8312 14.65526087 39852 DELFIN3XT 1 39428U 13066N 14233.20332635 .00000912 00000-0 16432-3 0 2364 2 39428 097.7563 295.1119 0129197 046.3761 314.8092 14.63511595 39840 GOMX-1 1 39430U 13066Q 14233.69127309 .00000544 00000-0 11129-3 0 7454 2 39430 097.7513 292.9047 0157228 052.3557 309.1792 14.56959238 39755 MO-76 1 39436U 13066W 14233.47924067 .00006203 00000-0 62473-3 0 3038 2 39436 097.7747 306.1255 0026261 036.6455 323.6593 14.91261416 40602 LO-74 1 39440U 13066AA 14233.06741454 .00000580 00000-0 92442-4 0 2340 2 39440 097.7658 299.2690 0085049 036.9881 323.7159 14.73200132 40133 PUCPSAT-1 1 39442U 13066AC 14233.47469645 .00000980 00000-0 11627-3 0 2334 2 39442 097.7765 305.2310 0035471 033.3243 327.0194 14.86311175 39327 SHINAISAT 1 39572U 14009A 14233.91777385 .00054244 00000-0 35600-3 0 2427 2 39572 065.0076 173.8421 0020394 280.7669 079.1190 15.75126520 27442 OPUSAT 1 39575U 14009D 14205.03098383 .10394079 79053-5 15280-3 0 2959 2 39575 064.9843 263.3854 0017888 326.7083 036.3105 16.47207532 23119 TEIKYOSAT 1 39576U 14009E 14233.88267178 .00086765 00000-0 43107-3 0 2537 2 39576 065.0043 171.1310 0019686 289.5170 070.3874 15.81203368 27494 CO-77 1 39577U 14009F 14233.89316243 .00543932 14953-3 72781-3 0 3201 2 39577 064.9966 164.2890 0016795 272.4683 087.4706 16.06004609 27624 STARS-II 1 39579U 14009H 14116.06110564 .20186783 77451-5 52661-3 0 1329 2 39579 064.9886 219.0071 0013010 293.8065 069.6132 16.44611049 9028 SPROUT 1 39770U 14029E 14233.32732728 .00000444 00000-0 61538-4 0 1057 2 39770 097.8719 329.4867 0011989 100.0300 260.2266 14.82702086 13196 POPSAT-HIP1 1 40028U 14033U 14233.84197735 .00000768 00000-0 95897-4 0 1863 2 40028 097.9784 128.6087 0016650 080.3630 279.9485 14.85176473 9324 EO-80 1 40032U 14033Y 14233.78429311 .00000772 00000-0 97001-4 0 1807 2 40032 097.9769 128.5001 0014278 076.1607 284.1194 14.84948496 9324 VELOX-1 1 40057U 14034E 14233.76501902 .00000719 00000-0 11721-3 0 1726 2 40057 098.2488 301.8395 0013223 112.4309 247.8301 14.74056523 7747 DAURIA DX 1 1 40071U 14037C 14233.75610767 .00000281 00000-0 45231-4 0 1430 2 40071 098.3986 287.3512 0009944 114.5156 245.7088 14.79541914 6504 UKUBE-1 1 40074U 14037F 14233.79774915 .00000715 00000-0 10108-3 0 1451 2 40074 098.3995 287.4629 0006460 121.1279 239.0571 14.80439793 6514 CHASQUI-1 1 40117U 98067ET 14233.78125948 .00034622 00000-0 60354-3 0 214 2 40117 051.6439 134.4396 0005847 035.5787 027.8337 15.50379538 479 /EX
